| time (UTC) | temp F | wind direction | speed knots | gust knots | rain 1hr in | rain 24hr in | rain mn in | humidity % | barometer mb |
| 20260905010104 | 63 | 294 | 9.6 | 19.1 | 0.00 | 0.00 | 0.00 | 74 | 1003.5 |
| 20260905004547 | 62 | 319 | 7.8 | 16.5 | 0.00 | 0.00 | 0.00 | 76 | 1003.8 |
| 20260905003046 | 61 | 314 | 7.8 | 16.5 | 0.00 | 0.00 | 0.00 | 76 | 1003.7 |
| 20260905001544 | 61 | 298 | 6.1 | 13.9 | 0.00 | 0.00 | 0.00 | 78 | 1003.7 |
| 20260905000042 | 61 | 311 | 7.8 | 17.4 | 0.00 | 0.00 | 0.00 | 79 | 1003.7 |
| 20260904234548 | 60 | 285 | 6.1 | 18.2 | 0.00 | 0.00 | 0.00 | 82 | 1004.0 |
| 20260904233042 | 59 | 338 | 4.3 | 16.5 | 0.00 | 0.00 | 0.00 | 86 | 1004.0 |
| 20260904231540 | 58 | 301 | 5.2 | 13.9 | 0.00 | 0.00 | 0.00 | 89 | 1004.0 |
| 20260904230040 | 57 | 271 | 6.1 | 13.0 | 0.00 | 0.00 | 0.00 | 91 | 1004.0 |
| 20260904224549 | 57 | 343 | 1.7 | 5.2 | 0.00 | 0.00 | 0.00 | 91 | 1004.1 |
| 20260904223040 | 57 | 16 | 2.6 | 7.0 | 0.00 | 0.00 | 0.00 | 91 | 1004.3 |
| 20260904221539 | 57 | 17 | 1.7 | 5.2 | 0.00 | 0.00 | 0.00 | 91 | 1004.8 |
| 20260904220037 | 57 | 319 | 0.9 | 7.0 | 0.00 | 0.00 | 0.00 | 90 | 1005.0 |
| 20260904214536 | 57 | 343 | 5.2 | 13.0 | 0.00 | 0.00 | 0.00 | 90 | 1004.1 |
| 20260904213034 | 57 | 344 | 5.2 | 10.4 | 0.00 | 0.00 | 0.00 | 90 | 1004.9 |
| 20260904211534 | 57 | 342 | 3.5 | 8.7 | 0.00 | 0.00 | 0.00 | 90 | 1005.5 |
| 20260904210034 | 57 | 323 | 3.5 | 7.0 | 0.00 | 0.00 | 0.00 | 89 | 1005.8 |
| 20260904204531 | 57 | 313 | 3.5 | 9.6 | 0.00 | 0.00 | 0.00 | 89 | 1006.0 |
| 20260904203039 | 58 | 338 | 2.6 | 7.8 | 0.00 | 0.00 | 0.00 | 89 | 1005.9 |
| 20260904201531 | 58 | 324 | 2.6 | 6.1 | 0.00 | 0.00 | 0.00 | 89 | 1005.9 |
| 20260904200030 | 57 | 306 | 1.7 | 7.0 | 0.00 | 0.00 | 0.00 | 89 | 1005.3 |
| 20260904194529 | 57 | 360 | 0.9 | 6.1 | 0.00 | 0.00 | 0.00 | 89 | 1005.8 |
| 20260904193030 | 57 | 351 | 3.5 | 7.0 | 0.00 | 0.00 | 0.00 | 88 | 1006.3 |
| 20260904191527 | 58 | 342 | 2.6 | 11.3 | 0.00 | 0.00 | 0.00 | 88 | 1006.4 |
| 20260904190027 | 58 | 340 | 7.8 | 16.5 | 0.00 | 0.00 | 0.00 | 89 | 1006.1 |
| 20260904184525 | 58 | 325 | 8.7 | 20.0 | 0.00 | 0.00 | 0.00 | 89 | 1006.6 |
| 20260904183025 | 58 | 313 | 7.0 | 12.2 | 0.00 | 0.00 | 0.00 | 89 | 1006.7 |
| 20260904181524 | 57 | 328 | 6.1 | 13.9 | 0.00 | 0.00 | 0.00 | 90 | 1005.7 |
| 20260904180022 | 57 | 22 | 5.2 | 15.6 | 0.00 | 0.00 | 0.00 | 90 | 1005.7 |
| 20260904174520 | 58 | 360 | 0.9 | 6.1 | 0.00 | 0.00 | 0.00 | 90 | 1005.9 |
| 20260904173020 | 58 | 360 | 1.7 | 13.0 | 0.00 | 0.00 | 0.00 | 90 | 1006.5 |
| 20260904171517 | 57 | 340 | 1.7 | 10.4 | 0.00 | 0.00 | 0.00 | 90 | 1006.7 |
| 20260904170016 | 57 | 344 | 5.2 | 13.9 | 0.00 | 0.00 | 0.00 | 90 | 1007.3 |
| 20260904164514 | 57 | 5 | 6.1 | 19.1 | 0.00 | 0.00 | 0.00 | 89 | 1007.3 |
| 20260904163011 | 58 | 324 | 5.2 | 20.0 | 0.00 | 0.00 | 0.00 | 89 | 1007.9 |
| 20260904161508 | 58 | 40 | 3.5 | 12.2 | 0.00 | 0.00 | 0.00 | 88 | 1008.7 |
| 20260904160015 | 58 | 323 | 5.2 | 11.3 | 0.00 | 0.00 | 0.00 | 88 | 1009.1 |
| 20260904154505 | 57 | 313 | 5.2 | 10.4 | 0.00 | 0.00 | 0.00 | 88 | 1008.9 |
| 20260904153002 | 57 | 327 | 2.6 | 12.2 | 0.00 | 0.00 | 0.00 | 88 | 1009.6 |
| 20260904151501 | 57 | 309 | 2.6 | 7.0 | 0.00 | 0.00 | 0.00 | 88 | 1009.7 |
| 20260904150104 | 57 | 315 | 1.7 | 7.8 | 0.00 | 0.00 | 0.00 | 87 | 1009.8 |
| 20260904144601 | 58 | 335 | 5.2 | 10.4 | 0.00 | 0.00 | 0.00 | 86 | 1010.1 |
| 20260904143054 | 58 | 333 | 7.0 | 12.2 | 0.00 | 0.00 | 0.00 | 84 | 1010.4 |
| 20260904141554 | 59 | 313 | 6.1 | 11.3 | 0.00 | 0.00 | 0.00 | 81 | 1010.7 |
| 20260904140101 | 61 | 316 | 4.3 | 9.6 | 0.00 | 0.00 | 0.00 | 77 | 1010.8 |
| 20260904134550 | 61 | 322 | 2.6 | 9.6 | 0.00 | 0.00 | 0.00 | 74 | 1010.7 |
| 20260904133052 | 60 | 293 | 3.5 | 14.8 | 0.00 | 0.00 | 0.00 | 75 | 1010.8 |
| 20260904131547 | 60 | 319 | 3.5 | 9.6 | 0.00 | 0.00 | 0.00 | 77 | 1010.9 |
| 20260904130051 | 60 | 355 | 4.3 | 9.6 | 0.00 | 0.00 | 0.00 | 77 | 1010.9 |
| 20260904124550 | 60 | 28 | 6.1 | 13.0 | 0.00 | 0.00 | 0.00 | 75 | 1011.1 |
| 20260904123043 | 60 | 323 | 6.1 | 14.8 | 0.00 | 0.00 | 0.00 | 74 | 1011.4 |
| 20260904121540 | 60 | 318 | 4.3 | 14.8 | 0.00 | 0.00 | 0.00 | 73 | 1011.9 |
| 20260904120037 | 60 | 333 | 5.2 | 13.9 | 0.00 | 0.00 | 0.00 | 73 | 1012.3 |
| 20260904114538 | 60 | 329 | 5.2 | 12.2 | 0.00 | 0.00 | 0.00 | 74 | 1012.8 |
| 20260904113036 | 59 | 331 | 5.2 | 15.6 | 0.00 | 0.00 | 0.00 | 75 | 1012.8 |
| 20260904111539 | 59 | 311 | 4.3 | 10.4 | 0.00 | 0.00 | 0.00 | 73 | 1013.0 |
| 20260904110032 | 59 | 310 | 1.7 | 7.8 | 0.00 | 0.00 | 0.00 | 73 | 1013.3 |
| 20260904104535 | 58 | 337 | 0.9 | 7.0 | 0.00 | 0.00 | 0.00 | 73 | 1013.3 |
| 20260904103031 | 58 | 317 | 1.7 | 4.3 | 0.00 | 0.00 | 0.00 | 74 | 1013.4 |
| 20260904101530 | 57 | 287 | 0.0 | 4.3 | 0.00 | 0.00 | 0.00 | 73 | 1013.5 |
| 20260904100029 | 57 | 302 | 0.0 | 0.0 | 0.00 | 0.00 | 0.00 | 72 | 1013.7 |
| 20260904094529 | 57 | 302 | 0.0 | 2.6 | 0.00 | 0.00 | 0.00 | 69 | 1013.6 |
| 20260904093029 | 57 | 296 | 0.9 | 4.3 | 0.00 | 0.00 | 0.00 | 69 | 1013.7 |
| 20260904091528 | 57 | 319 | 0.0 | 4.3 | 0.00 | 0.00 | 0.00 | 68 | 1013.8 |
| 20260904090033 | 58 | 9 | 1.7 | 4.3 | 0.00 | 0.00 | 0.00 | 67 | 1013.8 |
| 20260904084526 | 58 | 360 | 0.9 | 5.2 | 0.00 | 0.00 | 0.00 | 66 | 1014.0 |
| 20260904083024 | 59 | 315 | 1.7 | 6.1 | 0.00 | 0.00 | 0.00 | 65 | 1014.1 |
| 20260904081523 | 59 | 333 | 3.5 | 7.8 | 0.00 | 0.00 | 0.00 | 64 | 1014.1 |
| 20260904080022 | 60 | 355 | 2.6 | 11.3 | 0.00 | 0.00 | 0.00 | 64 | 1014.3 |
| 20260904074532 | 60 | 326 | 3.5 | 8.7 | 0.00 | 0.00 | 0.00 | 63 | 1014.6 |
| 20260904073024 | 61 | 325 | 3.5 | 9.6 | 0.00 | 0.00 | 0.00 | 63 | 1014.5 |
| 20260904071520 | 61 | 319 | 4.3 | 8.7 | 0.00 | 0.00 | 0.00 | 62 | 1014.4 |
| 20260904070020 | 61 | 328 | 6.1 | 10.4 | 0.00 | 0.00 | 0.00 | 61 | 1014.4 |
| 20260904064519 | 61 | 5 | 6.1 | 13.9 | 0.00 | 0.00 | 0.00 | 61 | 1014.6 |
| 20260904063022 | 61 | 305 | 8.7 | 19.1 | 0.00 | 0.00 | 0.00 | 60 | 1014.8 |
| 20260904061525 | 62 | 326 | 7.0 | 12.2 | 0.00 | 0.00 | 0.00 | 59 | 1015.1 |
| 20260904060020 | 62 | 331 | 6.1 | 16.5 | 0.00 | 0.00 | 0.00 | 58 | 1015.2 |
| 20260904054516 | 63 | 305 | 7.0 | 13.0 | 0.00 | 0.00 | 0.00 | 58 | 1015.3 |
| 20260904053022 | 63 | 311 | 5.2 | 12.2 | 0.00 | 0.00 | 0.00 | 59 | 1015.5 |
| 20260904051526 | 62 | 331 | 6.1 | 13.0 | 0.00 | 0.00 | 0.00 | 59 | 1015.4 |
| 20260904050011 | 63 | 309 | 7.0 | 14.8 | 0.00 | 0.00 | 0.00 | 58 | 1015.7 |
| 20260904044510 | 63 | 296 | 6.1 | 10.4 | 0.00 | 0.00 | 0.00 | 58 | 1015.8 |
| 20260904043009 | 64 | 346 | 7.0 | 15.6 | 0.00 | 0.00 | 0.00 | 56 | 1015.8 |
| 20260904041510 | 64 | 321 | 7.0 | 15.6 | 0.00 | 0.00 | 0.00 | 55 | 1015.8 |
| 20260904040015 | 64 | 335 | 5.2 | 13.0 | 0.00 | 0.00 | 0.00 | 54 | 1015.8 |
| 20260904034506 | 64 | 341 | 7.0 | 14.8 | 0.00 | 0.00 | 0.00 | 53 | 1016.2 |
| 20260904033002 | 63 | 300 | 7.8 | 15.6 | 0.00 | 0.00 | 0.00 | 52 | 1016.3 |
| 20260904031600 | 63 | 308 | 6.1 | 13.9 | 0.00 | 0.00 | 0.00 | 53 | 1016.7 |
| 20260904030057 | 63 | 312 | 7.8 | 13.9 | 0.00 | 0.00 | 0.00 | 53 | 1016.9 |
| 20260904024555 | 62 | 292 | 6.1 | 14.8 | 0.00 | 0.00 | 0.00 | 52 | 1017.0 |
| 20260904021552 | 62 | 355 | 6.1 | 13.9 | 0.00 | 0.00 | 0.00 | 52 | 1017.4 |
| 20260904020051 | 63 | 275 | 4.3 | 13.0 | 0.00 | 0.00 | 0.00 | 51 | 1017.7 |
| 20260904014602 | 62 | 302 | 5.2 | 12.2 | 0.00 | 0.00 | 0.00 | 52 | 1017.9 |
| 20260904011543 | 61 | 323 | 7.8 | 13.9 | 0.00 | 0.00 | 0.00 | 52 | 1018.6 |